Florennes, Belgium

9:06 AM CEST on July 26, 2017 (GMT +0200)
Florennes Air Base

Weather History for EBFS - November, 2013

Change the Weather History Date:

Sunday, November 17, 2013

  Actual Average Record
Temperature  
Mean Temperature 34 °F -  
Max Temperature 38 °F 40 °F 89 °F (2012)
Min Temperature 30 °F 35 °F 26 °F (1998)
Degree Days  
Heating Degree Days 31    
Moisture  
Dew Point 34 °F    
Average Humidity 95    
Maximum Humidity 100    
Minimum Humidity 86    
Precipitation  
Precipitation 0.00 in - - ()
Sea Level Pressure  
Sea Level Pressure 30.21 in    
Wind  
Wind Speed 3 mph ()    
Max Wind Speed 9 mph    
Max Gust Speed -    
Visibility 2.1 miles    
Events Fog    
Averages and records for this station are not official NWS values.
T = Trace of Precipitation, MM = Missing Value Source: Averaged Metar Reports

Daily Weather History Graph

Daily Weather History Graph

Search for Another Location

Airport or City:

Trip Planner

Search our weather history database for the weather conditions in past years. The results will help you decide how hot, cold, wet, or windy it might be!

Date:

Astronomy

Nov. 17, 2013 Rise Set
Actual Time 7:58 AM CET 4:53 PM CET
Civil Twilight 7:22 AM CET 5:29 PM CET
Nautical Twilight 6:42 AM CET 6:09 PM CET
Astronomical Twilight 6:04 AM CET 6:48 PM CET
Moon 5:00 PM CET (11/17) 7:35 AM CET (11/17)
Length of Visible Light 10h 07m
Length of Day
8h 55m
Full, 100% of the Moon is Illuminated
Nov 17
Full
Nov 17
Full
Nov 25
Last Quarter
Dec 3
New
Dec 9
First Quarter

Hourly Weather History & Observations

Time (CET) Temp. Windchill Dew Point Humidity Pressure Visibility Wind Dir Wind Speed Gust Speed Precip Events Conditions
12:25 AM 30.2 °F - 30.2 °F 100% 30.33 in 0.1 mi Variable 2.3 mph - N/A   Unknown
12:55 AM 30.2 °F - 30.2 °F 100% 30.33 in 0.1 mi Variable 2.3 mph - N/A Fog Light Freezing Fog
1:00 AM 31 °F - 31 °F 99% 30.39 in 0 mi 2.2 mph - - Fog Fog
1:25 AM 30.2 °F 26.7 °F 30.2 °F 100% 30.33 in 0.1 mi East 3.5 mph - N/A Fog Light Freezing Fog
1:55 AM 30.2 °F - 30.2 °F 100% 30.30 in 0.1 mi Variable 2.3 mph - N/A Fog Light Freezing Fog
2:55 AM 30.2 °F - 30.2 °F 100% 30.30 in 0.1 mi Variable 2.3 mph - N/A   Unknown
3:25 AM 30.2 °F - 30.2 °F 100% 30.30 in 0.1 mi Variable 2.3 mph - N/A   Unknown
3:55 AM 30.2 °F - 30.2 °F 100% 30.30 in 0.1 mi Variable 2.3 mph - N/A   Unknown
4:00 AM 31 °F - 31 °F 100% 30.37 in 0 mi 2.2 mph - - Fog Fog
4:25 AM 30.2 °F - 30.2 °F 100% 30.30 in 0.1 mi Variable 2.3 mph - N/A   Unknown
4:55 AM 30.2 °F 26.7 °F 30.2 °F 100% 30.30 in 0.1 mi ENE 3.5 mph - N/A   Unknown
5:25 AM 30.2 °F 25.4 °F 30.2 °F 100% 30.30 in 0.1 mi ENE 4.6 mph - N/A   Unknown
5:55 AM 32.0 °F 28.7 °F 32.0 °F 100% 30.27 in 0.1 mi ENE 3.5 mph - N/A Fog Light Freezing Fog
6:25 AM 32.0 °F 28.7 °F 32.0 °F 100% 30.27 in 0.2 mi Variable 3.5 mph - N/A Fog Light Freezing Fog
6:55 AM 32.0 °F 28.7 °F 32.0 °F 100% 30.27 in 0.3 mi East 3.5 mph - N/A Fog Light Freezing Fog
7:00 AM 32 °F - 32 °F 100% 30.33 in 0 mi 2.2 mph - - Fog Fog
7:25 AM 33.8 °F 28.6 °F 33.8 °F 100% 30.27 in 0.4 mi ENE 5.8 mph - N/A Fog Light Freezing Fog
7:55 AM 33.8 °F 29.6 °F 33.8 °F 100% 30.27 in 0.2 mi East 4.6 mph - N/A Fog Fog
8:25 AM 33.8 °F 27.7 °F 33.8 °F 100% 30.27 in 0.2 mi ENE 6.9 mph - N/A Fog Fog
8:55 AM 33.8 °F 27.7 °F 33.8 °F 100% 30.27 in 0.2 mi East 6.9 mph - N/A Fog Fog
9:25 AM 33.8 °F 27.7 °F 33.8 °F 100% 30.27 in 0.2 mi ENE 6.9 mph - N/A Fog Fog
9:55 AM 35.6 °F 28.6 °F 35.6 °F 100% 30.27 in 0.2 mi East 9.2 mph - N/A Fog Fog
10:00 AM 35 °F - 35 °F 98% 30.31 in 0 mi East 8.9 mph - - Fog Partial Fog
10:25 AM 35.6 °F 29.2 °F 35.6 °F 100% 30.27 in 0.2 mi ESE 8.1 mph - N/A Fog Fog
10:51 AM 33.8 °F 27.7 °F 33.8 °F 100% 30.27 in 0.6 mi East 6.9 mph - N/A Fog Fog
10:55 AM 33.8 °F 27.0 °F 33.8 °F 100% 30.24 in 0.7 mi East 8.1 mph - N/A Fog Fog
11:25 AM 35.6 °F 31.7 °F 35.6 °F 100% 30.24 in 0.9 mi East 4.6 mph - N/A   Scattered Clouds
11:55 AM 35.6 °F 31.7 °F 33.8 °F 93% 30.24 in 1.6 mi ESE 4.6 mph - N/A   Mostly Cloudy
12:15 PM 35.6 °F 31.7 °F 33.8 °F 93% 30.24 in 2.2 mi SE 4.6 mph - N/A   Mostly Cloudy
12:20 PM 35.6 °F 31.7 °F 33.8 °F 93% 30.24 in 2.8 mi SE 4.6 mph - N/A   Mostly Cloudy
12:25 PM 35.6 °F 31.7 °F 33.8 °F 93% 30.24 in 3.1 mi SE 4.6 mph - N/A   Mostly Cloudy
12:42 PM 37.4 °F - 33.8 °F 87% 30.21 in 3.7 mi Variable 2.3 mph - N/A   Mostly Cloudy
12:55 PM 37.4 °F 33.8 °F 33.8 °F 87% 30.21 in 4.3 mi ESE 4.6 mph - N/A   Mostly Cloudy
1:00 PM 37 °F - 34 °F 86% 30.27 in 4 mi ESE 4.5 mph - -   Partly Cloudy
1:25 PM 37.4 °F 34.9 °F 33.8 °F 87% 30.21 in 4.3 mi East 3.5 mph - N/A   Mostly Cloudy
1:55 PM 37.4 °F - 33.8 °F 87% 30.18 in 4.3 mi Variable 2.3 mph - N/A   Mostly Cloudy
2:25 PM 37.4 °F - 35.6 °F 93% 30.18 in 4.3 mi Variable 2.3 mph - N/A   Mostly Cloudy
2:37 PM 39.2 °F - 35.6 °F 87% 30.18 in 4.3 mi Variable 2.3 mph - N/A   Mostly Cloudy
2:55 PM 39.2 °F - 35.6 °F 87% 30.15 in 4.3 mi Variable 2.3 mph - N/A   Mostly Cloudy
3:25 PM 39.2 °F 37.0 °F 35.6 °F 87% 30.15 in 4.3 mi East 3.5 mph - N/A   Mostly Cloudy
3:55 PM 39.2 °F - 35.6 °F 87% 30.15 in 4.3 mi Variable 2.3 mph - N/A   Mostly Cloudy
4:00 PM 38 °F - 36 °F 87% 30.19 in 4 mi 2.2 mph - -   Overcast
4:25 PM 39.2 °F - 35.6 °F 87% 30.15 in 4.3 mi Variable 2.3 mph - N/A   Mostly Cloudy
4:55 PM 39.2 °F - 35.6 °F 87% 30.15 in 3.7 mi Variable 2.3 mph - N/A   Mostly Cloudy
5:25 PM 37.4 °F 34.9 °F 35.6 °F 93% 30.12 in 3.7 mi NNE 3.5 mph - N/A   Mostly Cloudy
5:42 PM 37.4 °F 34.9 °F 35.6 °F 93% 30.12 in 3.7 mi North 3.5 mph - N/A   Mostly Cloudy
5:55 PM 37.4 °F 34.9 °F 35.6 °F 93% 30.12 in 3.7 mi Variable 3.5 mph - N/A   Mostly Cloudy
6:25 PM 37.4 °F 34.9 °F 35.6 °F 93% 30.12 in 3.7 mi NNE 3.5 mph - N/A   Mostly Cloudy
6:55 PM 37.4 °F 34.9 °F 35.6 °F 93% 30.12 in 3.7 mi ENE 3.5 mph - N/A   Mostly Cloudy
7:00 PM 38 °F - 36 °F 90% 30.17 in 4 mi 2.2 mph - -   Overcast
7:25 PM 37.4 °F - 35.6 °F 93% 30.12 in 3.7 mi Variable 2.3 mph - N/A   Mostly Cloudy
7:55 PM 37.4 °F - 35.6 °F 93% 30.09 in 3.7 mi Variable 1.2 mph - N/A   Mostly Cloudy
8:25 PM 37.4 °F - 35.6 °F 93% 30.09 in 3.7 mi Variable 2.3 mph - N/A   Mostly Cloudy
8:55 PM 37.4 °F - 35.6 °F 93% 30.09 in 3.1 mi Variable 1.2 mph - N/A   Mostly Cloudy
9:25 PM 37.4 °F - 35.6 °F 93% 30.09 in 3.1 mi Variable 1.2 mph - N/A   Mostly Cloudy
9:55 PM 37.4 °F 34.9 °F 35.6 °F 93% 30.06 in 3.1 mi Variable 3.5 mph - N/A   Mostly Cloudy
10:00 PM 38 °F - 36 °F 91% 30.12 in 3 mi 2.2 mph - -   Mist
10:25 PM 37.4 °F 34.9 °F 35.6 °F 93% 30.06 in 3.1 mi Variable 3.5 mph - N/A   Mostly Cloudy
10:55 PM 37.4 °F - 35.6 °F 93% 30.06 in 3.1 mi Variable 1.2 mph - N/A   Mostly Cloudy
11:25 PM 37.4 °F - 35.6 °F 93% 30.04 in 3.1 mi Variable 2.3 mph - N/A   Mostly Cloudy
11:55 PM 37.4 °F - 37.4 °F 100% 30.04 in 3.1 mi Variable 2.3 mph - N/A   Mostly Cloudy